Terminal Aerodrome Forecast
Issued by NWS

Home | Current Version | Previous Version | Text Only | Print | Product List | Glossary On
Versions: 1 2 3 4 5 6 7 8 9 10 11 12 13 14 15 16 17 18 19 20 21 22 23
000
FTUS46 KEKA 211317 AAA
TAFCEC
TAF AMD
KCEC 211317Z 2113/2212 17005KT 5SM BR OVC009
      TEMPO 2113/2115 1 1/2SM BR OVC004
     FM212000 18005KT P6SM OVC007
     FM220300 16004KT 4SM BR OVC003=

USA.gov is the U.S. government's official web portal to all federal, state and local government web resources and services.